Find Starlink 11263

NORAD ID: 60725 Int'l Des: 2024-152 Owner: SPXS Country: US Constellation: starlink operational
別名: STARLINK-11263 [DTC] celestrak
LEOCIRCULAR

現在のビュー

3D地球を読み込み中...

About Starlink 11263

Starlink 11263 (NORAD 60725) is a starlink constellation satellite (v2 mini d2c) launched Aug 28, 2024 by SPXS of US. It operates in LEO, CIRCULAR orbit with a mass of 960.00 kg.

次回通過

Passes for default location (London). Set your location on the main map for personalized predictions.

高度履歴

Loading altitude history...

軌道要素

1 60725U 24152F 26236.77055101 .00001338 00000-0 15888-4 0 9998
2 60725 53.1590 7.7112 0000225 54.8698 305.2341 15.69714017115233
Epoch: Aug 24, 2026 • Age: 18 hours

現在のステータス

高度 368.3 km
遠地点 / 近地点 N/A
速度 7.69 km/s
衛星直下点 -28.50°S, 176.19°E
打ち上げ日 Aug 28, 2024
運用期間 1.9 years
タイプ internet

技術仕様

分類 Payload
質量 960.00 kg
乾燥質量 910.00 kg
総質量 960.00 kg
長さ 0.30 m
直径 4.10 m
スパン 29.00 m
形状 Box + pan
製造者 SPXS
バスタイプ Starlink V2MD
フェーズステータス In Orbit
所有者/国 SPXS/US

Most Searched